Regional Weather Roundup
Issued by NWS Sterling, VA

Home | Current Version | Previous Version | Text Only | Print | Product List | Glossary Off
Versions: 1 2 3 4 5 6 7 8 9 10 11 12 13 14 15 16 17 18 19 20 21 22 23 24 25 26 27

000
ASUS41 KLWX 102211
RWRLWX

REGIONAL WEATHER ROUNDUP
NATIONAL WEATHER SERVICE BALTIMORE MD/WASHINGTON DC
500 PM EST SUN DEC 10 2017

Note: "FAIR" indicates few or no clouds below 12,000 feet
with no significant weather and/or obstructions to visibility.
 TC=TEMPERATURE CELSIUS

 * =Non NWS site. Station does not report precipitation (e.g. rain,
    snow, etc.), thunder, or fog.

DCZ001-MDZ009-015-VAZ040>042-051-053>054-102300-
WASHINGTON METRO

CITY           SKY/WX    TMP DP  RH WIND       PRES   REMARKS
WASHINGTON NAT MOCLDY    40  23  50 SW7       30.05R
DULLES         CLOUDY    36  25  64 SW3       30.03R
ANDREWS AFB    MOCLDY    37  22  54 SW6       30.03R
FT BELVOIR     PTCLDY    40  22  49 CALM      30.05R
QUANTICO       MOCLDY    41  23  48 SW5       30.07R
COLLEGE PARK*  PTCLDY    38  20  49 W5        30.04R
LEESBURG*      CLOUDY    37  25  60 W3        30.03S
MANASSAS*      CLOUDY    38  23  55 S3        30.04S
GAITHERSBURG*  CLOUDY    35  21  56 W5        30.02R

$$

MDZ006>007-011-014-102300-
BALTIMORE METRO

CITY           SKY/WX    TMP DP  RH WIND       PRES   REMARKS
BWI AIRPORT    MOCLDY    37  22  54 W7        30.03R
MD SCIENCE CTR   N/A     39  21  48 MISG      30.03R
MARTIN STATE   MOCLDY    39  25  56 W5        30.05S
ANNAPOLIS      PTCLDY    38  23  55 W3        30.04S
FORT MEADE*    CLOUDY    34  23  64 SW5       30.06R

$$

MDZ012-015-019>023-102300-
MARYLAND EASTERN SHORE

CITY           SKY/WX    TMP DP  RH WIND       PRES   REMARKS
OCEAN CITY     CLEAR     34  26  72 W5        30.09R
SALISBURY      PTCLDY    32  27  81 S6        30.07R
CAMBRIDGE*     PTCLDY    36  27  69 CALM      30.06S
EASTON*        PTCLDY    37  25  60 CALM      30.08S

$$

MDZ017>025-102300-
SOUTHERN MARYLAND

CITY           SKY/WX    TMP DP  RH WIND       PRES   REMARKS
PATUXENT RIVER PTCLDY    36  28  73 S6        30.06F
ST INIGOES     CLEAR     37  27  67 SW9       30.06F
LEONARDTOWN*   CLEAR     36  30  80 CALM      30.07S

$$

MDZ003>005-102300-
NORTH CENTRAL MARYLAND

CITY           SKY/WX    TMP DP  RH WIND       PRES   REMARKS
FREDERICK*     CLEAR     37  16  41 W7        30.05S
HAGERSTOWN APT CLOUDY    36  18  48 W8        30.00R
WESTMINSTER*   CLOUDY    36  21  55 W8        29.99R

$$

MDZ501>502-102300-
WESTERN MARYLAND

CITY           SKY/WX    TMP DP  RH WIND       PRES   REMARKS
OAKLAND*       CLEAR     21  14  73 SW7G17    29.86S
CUMBERLAND*    CLEAR     34  18  51 SW7       30.04S

$$

VAZ025>031-102300-
SHENANDOAH VALLEY

CITY           SKY/WX    TMP DP  RH WIND       PRES   REMARKS
WINCHESTER*    PTCLDY    34  18  51 W5        30.01R
FRONT ROYAL*   FAIR      36  19  51 CALM      30.00S
LURAY*         CLEAR     36  23  60 S6        30.01R
NEW MARKET*    CLEAR     35  19  53 S5        30.00R
STAUNTON*      CLEAR     34  19  55 S7        30.03R
WAYNESBORO*    CLEAR     33  18  53 SW8       30.01S WCI  26

$$

WVZ021-048>050-054>055-102300-
EASTERN WEST VIRGINIA PANHANDLE

CITY           SKY/WX    TMP DP  RH WIND       PRES   REMARKS
MARTINSBURG    CLOUDY    35  17  47 W9        30.00S WCI  28
PETERSBURG*    CLOUDY    35  14  43 SW6       30.00S

$$

VAZ036>039-050-102300-
CENTRAL FOOTHILLS

CITY           SKY/WX    TMP DP  RH WIND       PRES   REMARKS
CHARLOTTESVILL CLEAR     39  18  42 SW3       30.04R
CULPEPER*      FAIR      39  20  46 SW3       30.04F
ORANGE*        CLOUDY    37  21  52 CALM      30.04S
GORDONSVILLE*  CLEAR     38  20  47 SW5       30.04S
WARRENTON*     CLOUDY    39  18  43 SW3       30.03S

$$

VAZ055>057-102300-
NORTH AND CENTRAL PIEDMONT

CITY           SKY/WX    TMP DP  RH WIND       PRES   REMARKS
FREDERICKSBRG* CLEAR     40  24  53 SW5       30.06R
STAFFORD*      CLEAR     38  22  52 SW3       30.09R

$$

NCZ024-NYZ072-PAZ021-071-VAZ022-071-102300-
OTHER REGIONAL OBSERVATIONS

CITY           SKY/WX    TMP DP  RH WIND       PRES   REMARKS
NEW YORK CITY  PTCLDY    37  21  52 W12G20    29.98R
PHILADELPHIA   MOCLDY    37  21  52 W16       30.02R WCI  28
PITTSBURGH     CLOUDY    32  17  54 SW10      29.94S WCI  24
ROANOKE        CLEAR     38  19  46 SW8       30.07S
RICHMOND       PTCLDY    36  27  69 SW8       30.09S
RALEIGH        PTCLDY    40  23  50 W3        30.14R

$$

ANZ530>537-102300-
MARINE OBSERVATIONS

STATION/POSITION TIME  TEMP    WIND        PRES
                       AIR SEA DIR/SP/G
                 (UTC) (F)     (DEG/KT/KT) (MB)
THOMAS PT LIGHT  2200   39 47  260/  9/ 10   N/A
BALT KEY BRIDGE  2148   38     230/  7/  9 1017.0R
COVE POINT       2148   38     220/ 10/ 11 1018.4F
LEWISETTA        2148          220/  6/  7   N/A
SOLOMONS ISLAND  2148          220/  9/ 11   N/A
PINEY POINT      2148          230/  5/  8   N/A

$$





USA.gov is the U.S. government's official web portal to all federal, state and local government web resources and services.